Date String (YYYY-MM-DD hh:mm:ss) UTC,Instrument flags,absolute air pressure of the measurement (hPa),sample flow rate (lpm),inlet stack bypass flow (lpm),air temperature of the measurement (°C),ambient temperature measured by the external sensor (°C),aerosol sample conditioner tube jacket temperature (°C),OPC LED temperature (°C),internal box temperature (°C),relative humidity of the measurement (%),span deviation,mass concentration of particles derived from Lorenz-Mie calculation of OPC scattering (μg/m³),mass concentration of particles derived from Lorenz-Mie calculation of OPC scattering (μg/m³),mass concentration of particles derived from Lorenz-Mie calculation of OPC scattering (μg/m³)
DateTimeUTC,F1_M11,P_M11,Q1_M11,Q2_M11,T1_M11,T2_M11,T3_M11,T4_M11,T5_M11,U1_M11,ZSPAN_M11,X0_M11,X2_M11,X1_M11
2023-08-31 12:00:00,SystemResetWarning,0829.2,5.01,000.00,026.0,022.1,000.0,034.3,027.0,18.7,0000.0,0009.28,0004.24,0003.58
2023-08-31 12:01:00,SystemResetWarning,0829.2,5.01,000.00,025.9,021.8,000.0,034.2,026.9,18.8,0000.0,0009.50,0004.21,0003.57
2023-08-31 12:02:00,SystemResetWarning,0829.2,5.00,000.00,025.8,022.1,000.0,034.2,026.8,18.8,0000.0,0009.97,0004.17,0003.55
2023-08-31 12:03:00,SystemResetWarning,0829.2,5.00,000.00,025.7,022.5,000.0,034.2,026.9,18.8,0000.0,0009.93,0004.16,0003.54
2023-08-31 12:04:00,SystemResetWarning,0829.2,5.00,000.00,025.7,022.9,000.0,034.2,027.1,18.9,0000.0,0010.02,0004.13,0003.50
2023-08-31 12:05:00,SystemResetWarning,0829.2,5.00,000.00,025.7,023.3,000.0,034.2,027.2,19.0,0000.0,0010.20,0004.13,0003.49
2023-08-31 12:06:00,SystemResetWarning,0829.3,5.00,000.00,025.7,023.6,000.0,034.2,027.3,18.8,0000.0,0009.93,0004.04,0003.47
2023-08-31 12:07:00,SystemResetWarning,0829.2,4.99,000.00,025.8,023.9,000.0,034.2,027.4,19.0,0000.0,0009.61,0004.01,0003.45
2023-08-31 12:08:00,SystemResetWarning,0829.3,5.00,000.00,025.8,024.2,000.0,034.2,027.4,18.9,0000.0,0009.27,0003.97,0003.42
2023-08-31 12:09:00,SystemResetWarning,0829.3,5.00,000.00,025.8,024.4,000.0,034.2,027.5,18.7,0000.0,0009.15,0003.93,0003.40
2023-08-31 12:10:00,SystemResetWarning,0829.3,5.00,000.00,025.9,024.5,000.0,034.2,027.5,18.7,0000.0,0008.92,0003.87,0003.39
2023-08-31 12:11:00,SystemResetWarning,0829.3,5.00,000.00,025.9,024.7,000.0,034.2,027.6,18.5,0000.0,0008.80,0003.81,0003.35
2023-08-31 12:12:00,SystemResetWarning,0829.3,5.00,000.00,025.9,024.8,000.0,034.3,027.6,18.4,0000.0,0008.46,0003.78,0003.30
2023-08-31 12:13:00,SystemResetWarning,0829.3,5.00,000.00,026.0,024.9,000.0,034.3,027.7,18.3,0000.0,0007.82,0003.73,0003.27
2023-08-31 12:14:00,SystemResetWarning,0829.3,5.00,000.00,026.0,025.0,000.0,034.3,027.8,18.2,0000.0,0007.62,0003.69,0003.24
2023-08-31 12:15:00,SystemResetWarning,0829.3,5.00,000.00,026.1,025.1,000.0,034.3,027.8,18.1,0000.0,0007.49,0003.66,0003.24
2023-08-31 12:16:00,SystemResetWarning,0829.4,5.00,000.00,026.1,025.2,000.0,034.4,027.8,18.2,0000.0,0007.11,0003.63,0003.21
2023-08-31 12:17:00,SystemResetWarning,0829.4,5.00,000.00,026.1,025.2,000.0,034.4,027.9,18.2,0000.0,0006.30,0003.59,0003.19
2023-08-31 12:18:00,SystemResetWarning,0829.4,4.99,000.00,026.2,024.8,000.0,034.4,027.8,18.2,0000.0,0005.92,0003.56,0003.17
2023-08-31 12:19:00,SystemResetWarning,0829.4,4.99,000.00,026.1,023.1,000.0,034.3,027.4,18.2,0000.0,0005.53,0003.54,0003.16
2023-08-31 12:20:00,SystemResetWarning,0829.4,5.02,000.00,026.0,022.6,000.0,034.2,027.2,18.1,0000.0,0005.78,0003.50,0003.15
2023-08-31 12:21:00,SystemResetWarning,0829.4,5.00,000.00,025.9,022.7,000.0,034.2,027.1,18.0,0000.0,0007.08,0003.50,0003.13
2023-08-31 12:22:00,SystemResetWarning,0829.4,5.00,000.00,025.8,023.0,000.0,034.3,027.2,18.0,0000.0,0007.08,0003.49,0003.14
2023-08-31 12:23:00,SystemResetWarning,0829.4,4.99,000.00,025.8,023.4,000.0,034.3,027.3,17.9,0000.0,0007.29,0003.51,0003.15
2023-08-31 12:24:00,SystemResetWarning,0829.4,5.00,000.00,025.9,023.7,000.0,034.3,027.4,17.9,0000.0,0007.39,0003.54,0003.17
2023-08-31 12:25:00,SystemResetWarning,0829.3,5.01,000.00,025.9,024.0,000.0,034.3,027.5,18.2,0000.0,0007.46,0003.59,0003.19
2023-08-31 12:26:00,SystemResetWarning,0829.4,4.99,000.00,025.9,024.2,000.0,034.3,027.5,18.1,0000.0,0007.50,0003.63,0003.21
2023-08-31 12:27:00,SystemResetWarning,0829.3,5.00,000.00,025.9,024.4,000.0,034.3,027.6,17.6,0000.0,0007.62,0003.69,0003.22
2023-08-31 12:28:00,SystemResetWarning,0829.4,5.00,000.00,026.0,024.6,000.0,034.3,027.6,17.6,0000.0,0007.71,0003.73,0003.25
2023-08-31 12:29:00,SystemResetWarning,0829.3,5.00,000.00,026.0,024.7,000.0,034.3,027.7,17.5,0000.0,0007.79,0003.75,0003.24
2023-08-31 12:30:00,SystemResetWarning,0829.3,5.00,000.00,026.0,024.9,000.0,034.4,027.7,17.4,0000.0,0008.45,0003.73,0003.21
2023-08-31 12:31:00,SystemResetWarning,0829.3,4.99,000.00,026.1,025.0,000.0,034.4,027.8,17.3,0000.0,0008.69,0003.72,0003.17
2023-08-31 12:32:00,SystemResetWarning,0829.4,5.00,000.00,026.1,025.1,000.0,034.4,027.8,17.2,0000.0,0007.97,0003.70,0003.14
2023-08-31 12:33:00,SystemResetWarning,0829.4,5.00,000.00,026.1,025.1,000.0,034.4,027.9,17.0,0000.0,0007.95,0003.69,0003.11
2023-08-31 12:34:00,SystemResetWarning,0829.4,5.00,000.00,026.2,025.2,000.0,034.5,027.9,17.0,0000.0,0007.82,0003.66,0003.07
2023-08-31 12:35:00,SystemResetWarning,0829.5,5.00,000.00,026.2,024.9,000.0,034.5,027.9,16.8,0000.0,0007.82,0003.65,0003.02
2023-08-31 12:36:00,SystemResetWarning,0829.5,5.00,000.00,026.1,023.3,000.0,034.4,027.4,17.1,0000.0,0007.68,0003.59,0002.96
2023-08-31 12:37:00,SystemResetWarning,0829.4,5.00,000.00,026.0,022.7,000.0,034.3,027.3,17.3,0000.0,0008.38,0003.52,0002.88
2023-08-31 12:38:00,SystemResetWarning,0829.5,5.01,000.00,025.9,022.8,000.0,034.3,027.2,17.3,0000.0,0008.28,0003.43,0002.79
2023-08-31 12:39:00,SystemResetWarning,0829.5,5.01,000.00,025.9,023.1,000.0,034.3,027.2,17.4,0000.0,0008.25,0003.39,0002.73
2023-08-31 12:40:00,SystemResetWarning,0829.6,4.99,000.00,025.9,023.4,000.0,034.3,027.3,17.4,0000.0,0008.28,0003.38,0002.71
2023-08-31 12:41:00,SystemResetWarning,0829.6,4.99,000.00,025.9,023.7,000.0,034.3,027.4,17.3,0000.0,0007.72,0003.38,0002.72
2023-08-31 12:42:00,SystemResetWarning,0829.6,4.99,000.00,025.9,024.0,000.0,034.3,027.5,17.2,0000.0,0007.35,0003.39,0002.74
2023-08-31 12:43:00,SystemResetWarning,0829.6,5.00,000.00,025.9,024.2,000.0,034.3,027.5,17.5,0000.0,0007.34,0003.37,0002.75
2023-08-31 12:44:00,SystemResetWarning,0829.6,5.00,000.00,026.0,024.5,000.0,034.4,027.6,17.1,0000.0,0007.25,0003.33,0002.75
2023-08-31 12:45:00,SystemResetWarning,0829.7,5.00,000.00,026.0,024.6,000.0,034.4,027.7,17.0,0000.0,0007.86,0003.32,0002.76
2023-08-31 12:46:00,SystemResetWarning,0829.7,5.01,000.00,026.0,024.8,000.0,034.4,027.7,17.0,0000.0,0008.59,0003.29,0002.76
2023-08-31 12:47:00,SystemResetWarning,0829.7,4.99,000.00,026.1,024.9,000.0,034.4,027.8,17.1,0000.0,0008.73,0003.29,0002.75
2023-08-31 12:48:00,SystemResetWarning,0829.7,5.00,000.00,026.1,025.0,000.0,034.4,027.8,17.2,0000.0,0008.60,0003.33,0002.76
2023-08-31 12:49:00,SystemResetWarning,0829.7,4.99,000.00,026.1,025.1,000.0,034.4,027.9,17.3,0000.0,0008.84,0003.35,0002.77
2023-08-31 12:50:00,SystemResetWarning,0829.7,5.00,000.00,026.2,025.2,000.0,034.5,027.9,17.0,0000.0,0008.78,0003.34,0002.77
2023-08-31 12:51:00,SystemResetWarning,0829.7,5.01,000.00,026.2,025.3,000.0,034.5,027.9,16.8,0000.0,0008.78,0003.29,0002.74
2023-08-31 12:52:00,SystemResetWarning,0829.7,5.00,000.00,026.3,025.1,000.0,034.5,027.9,16.7,0000.0,0009.37,0003.27,0002.71
2023-08-31 12:53:00,SystemResetWarning,0829.7,4.99,000.00,026.2,023.5,000.0,034.4,027.4,16.7,0000.0,0009.32,0003.26,0002.69
2023-08-31 12:54:00,SystemResetWarning,0829.7,5.00,000.00,026.0,022.1,000.0,034.3,027.0,17.0,0000.0,0009.26,0003.28,0002.68
2023-08-31 12:55:00,SystemResetWarning,0829.7,5.01,000.00,025.9,022.1,000.0,034.3,027.0,17.1,0000.0,0009.28,0003.30,0002.68
2023-08-31 12:56:00,SystemResetWarning,0829.7,5.01,000.00,025.8,022.4,000.0,034.3,027.0,17.3,0000.0,0008.95,0003.29,0002.67
2023-08-31 12:57:00,SystemResetWarning,0829.7,5.00,000.00,025.8,022.8,000.0,034.3,027.1,17.3,0000.0,0008.04,0003.30,0002.67
2023-08-31 12:58:00,SystemResetWarning,0829.7,5.00,000.00,025.8,023.2,000.0,034.3,027.2,17.3,0000.0,0007.99,0003.32,0002.68
2023-08-31 12:59:00,SystemResetWarning,0829.7,5.00,000.00,025.8,023.5,000.0,034.3,027.3,17.0,0000.0,0008.44,0003.30,0002.67
